• In Österreich
  • Länderverzeichnis
  • Für 7 Tage
  • Wassertemperatur
  • Satellitenkarten
  • Wetterkarte
  • News
  • Widgets
  • user-avatar
    Anmelden

    Stündliche Wetter Ansfelden

    Heute, 19 August, Sonntag

    Zeit Temperatur Niederschläge Wind Luftdruck Luftfeuchtigkeit
    00:00 +21°C° 0 mm 1 m/S 740 mmHg 78%
    01:00 +21°C° 0 mm 1 m/S 740 mmHg 80%
    02:00 +20°C° 0 mm 1 m/S 740 mmHg 82%
    03:00 +20°C° 0 mm 1 m/S 740 mmHg 83%
    04:00 +19°C° 0 mm 1 m/S 740 mmHg 85%
    05:00 +20°C° 0 mm 1 m/S 740 mmHg 82%
    06:00 +19°C° 0 mm 0 m/S 740 mmHg 80%
    07:00 +21°C° 0 mm 0 m/S 740 mmHg 77%
    08:00 +23°C° 0 mm 0 m/S 740 mmHg 70%
    09:00 +27°C° 0 mm 1 m/S 740 mmHg 62%
    10:00 +29°C° 0 mm 1 m/S 740 mmHg 54%
    11:00 +30°C° 0 mm 1 m/S 740 mmHg 50%
    12:00 +31°C° 0 mm 1 m/S 740 mmHg 45%
    13:00 +32°C° 0 mm 2 m/S 740 mmHg 41%
    14:00 +32°C° 0 mm 2 m/S 739 mmHg 42%
    15:00 +31°C° 0 mm 1 m/S 739 mmHg 43%
    16:00 +31°C° 0 mm 1 m/S 739 mmHg 44%
    17:00 +29°C° 0 mm 1 m/S 739 mmHg 51%
    18:00 +27°C° 0 mm 1 m/S 739 mmHg 58%
    19:00 +23°C° 0 mm 0 m/S 739 mmHg 66%
    20:00 +24°C° 0 mm 1 m/S 739 mmHg 67%
    21:00 +23°C° 0 mm 1 m/S 739 mmHg 68%
    22:00 +22°C° 0 mm 1 m/S 739 mmHg 69%
    23:00 +22°C° 0 mm 1 m/S 739 mmHg 71%

    Morgen, 20 August, Montag

    Zeit Temperatur Niederschläge Wind Luftdruck Luftfeuchtigkeit
    00:00 +21°C° 0 mm 1 m/S 739 mmHg 72%
    01:00 +21°C° 0 mm 1 m/S 739 mmHg 74%
    02:00 +20°C° 0 mm 1 m/S 739 mmHg 76%
    03:00 +20°C° 0 mm 1 m/S 739 mmHg 78%
    04:00 +19°C° 0 mm 1 m/S 739 mmHg 80%
    05:00 +20°C° 0 mm 1 m/S 739 mmHg 79%
    06:00 +21°C° 0 mm 1 m/S 739 mmHg 77%
    07:00 +22°C° 0 mm 1 m/S 739 mmHg 76%
    08:00 +24°C° 0,1 mm 1 m/S 739 mmHg 72%
    09:00 +26°C° 0,1 mm 1 m/S 739 mmHg 67%
    10:00 +27°C° 0,1 mm 1 m/S 739 mmHg 63%
    11:00 +28°C° 0,6 mm 2 m/S 739 mmHg 61%
    12:00 +29°C° 0,6 mm 2 m/S 739 mmHg 60%
    13:00 +29°C° 0,6 mm 2 m/S 738 mmHg 59%
    14:00 +29°C° 0,4 mm 2 m/S 738 mmHg 58%
    15:00 +29°C° 0,4 mm 1 m/S 738 mmHg 58%
    16:00 +29°C° 0,4 mm 1 m/S 738 mmHg 58%
    17:00 +27°C° 0,2 mm 1 m/S 738 mmHg 65%
    18:00 +26°C° 0,2 mm 1 m/S 738 mmHg 71%
    19:00 +24°C° 0,2 mm 1 m/S 738 mmHg 77%
    20:00 +23°C° 0 mm 1 m/S 739 mmHg 80%
    21:00 +22°C° 0 mm 1 m/S 739 mmHg 82%
    22:00 +21°C° 0 mm 1 m/S 739 mmHg 84%
    23:00 +21°C° 0 mm 1 m/S 739 mmHg 86%

    übermorgen, 21 August, Dienstag

    Zeit Temperatur Niederschläge Wind Luftdruck Luftfeuchtigkeit
    00:00 +21°C° 0 mm 1 m/S 739 mmHg 87%
    01:00 +20°C° 0 mm 1 m/S 739 mmHg 89%
    02:00 +20°C° 0 mm 1 m/S 740 mmHg 90%
    03:00 +20°C° 0 mm 1 m/S 740 mmHg 92%
    04:00 +19°C° 0 mm 1 m/S 740 mmHg 93%
    05:00 +20°C° 0 mm 1 m/S 740 mmHg 91%
    06:00 +19°C° 0 mm 0 m/S 740 mmHg 88%
    07:00 +20°C° 0 mm 0 m/S 740 mmHg 85%
    08:00 +22°C° 0,1 mm 0 m/S 740 mmHg 79%
    09:00 +24°C° 0,1 mm 0 m/S 740 mmHg 72%
    10:00 +28°C° 0,1 mm 1 m/S 740 mmHg 65%
    11:00 +28°C° 0,2 mm 1 m/S 740 mmHg 62%
    12:00 +29°C° 0,2 mm 1 m/S 740 mmHg 59%
    13:00 +30°C° 0,2 mm 1 m/S 740 mmHg 56%
    14:00 +30°C° 0,2 mm 1 m/S 739 mmHg 57%
    15:00 +29°C° 0,2 mm 1 m/S 739 mmHg 58%
    16:00 +29°C° 0,2 mm 2 m/S 739 mmHg 59%
    17:00 +27°C° 0,1 mm 2 m/S 739 mmHg 66%
    18:00 +26°C° 0,1 mm 2 m/S 739 mmHg 73%
    19:00 +24°C° 0,1 mm 1 m/S 739 mmHg 80%
    20:00 +23°C° 0 mm 1 m/S 739 mmHg 83%
    21:00 +22°C° 0 mm 1 m/S 739 mmHg 85%
    22:00 +21°C° 0 mm 1 m/S 740 mmHg 87%
    23:00 +21°C° 0 mm 1 m/S 740 mmHg 88%

    22 August, Mittwoch

    Zeit Temperatur Niederschläge Wind Luftdruck Luftfeuchtigkeit
    00:00 +20°C° 0 mm 1 m/S 739 mmHg 89%
    01:00 +20°C° 0 mm 1 m/S 739 mmHg 89%
    02:00 +20°C° 0 mm 1 m/S 739 mmHg 90%
    03:00 +19°C° 0 mm 1 m/S 739 mmHg 90%
    04:00 +19°C° 0 mm 1 m/S 739 mmHg 91%
    05:00 +20°C° 0 mm 1 m/S 739 mmHg 87%
    06:00 +21°C° 0 mm 1 m/S 739 mmHg 84%
    07:00 +22°C° 0 mm 1 m/S 739 mmHg 81%
    08:00 +24°C° 0 mm 1 m/S 739 mmHg 73%
    09:00 +26°C° 0 mm 1 m/S 739 mmHg 66%
    10:00 +28°C° 0 mm 1 m/S 739 mmHg 59%
    11:00 +29°C° 0 mm 2 m/S 739 mmHg 56%
    12:00 +30°C° 0 mm 2 m/S 738 mmHg 54%
    13:00 +31°C° 0 mm 2 m/S 738 mmHg 51%
    14:00 +31°C° 0,1 mm 2 m/S 738 mmHg 52%
    15:00 +31°C° 0,1 mm 2 m/S 738 mmHg 53%
    16:00 +31°C° 0,1 mm 2 m/S 737 mmHg 54%
    17:00 +29°C° 0,1 mm 1 m/S 737 mmHg 61%
    18:00 +27°C° 0,1 mm 1 m/S 737 mmHg 69%
    19:00 +25°C° 0,1 mm 1 m/S 737 mmHg 77%
    20:00 +24°C° 0 mm 1 m/S 737 mmHg 79%
    21:00 +23°C° 0 mm 1 m/S 738 mmHg 81%
    22:00 +22°C° 0 mm 1 m/S 738 mmHg 83%
    23:00 +22°C° 0 mm 1 m/S 738 mmHg 85%

    23 August, Donnerstag

    Zeit Temperatur Niederschläge Wind Luftdruck Luftfeuchtigkeit
    00:00 +22°C° 0 mm 1 m/S 738 mmHg 86%
    01:00 +21°C° 0 mm 1 m/S 737 mmHg 88%
    02:00 +21°C° 0,1 mm 1 m/S 737 mmHg 88%
    03:00 +21°C° 0,1 mm 1 m/S 737 mmHg 89%
    04:00 +20°C° 0,1 mm 1 m/S 737 mmHg 90%
    05:00 +21°C° 0 mm 1 m/S 737 mmHg 88%
    06:00 +22°C° 0 mm 1 m/S 737 mmHg 86%
    07:00 +23°C° 0 mm 1 m/S 737 mmHg 84%
    08:00 +24°C° 0,3 mm 1 m/S 737 mmHg 79%
    09:00 +26°C° 0,3 mm 1 m/S 737 mmHg 75%
    10:00 +27°C° 0,3 mm 1 m/S 737 mmHg 70%
    11:00 +28°C° 0,8 mm 1 m/S 736 mmHg 66%
    12:00 +29°C° 0,8 mm 1 m/S 736 mmHg 62%
    13:00 +30°C° 0,8 mm 1 m/S 736 mmHg 57%
    14:00 +30°C° 0,2 mm 1 m/S 735 mmHg 57%
    15:00 +30°C° 0,2 mm 1 m/S 735 mmHg 57%
    16:00 +30°C° 0,2 mm 1 m/S 735 mmHg 57%
    17:00 +28°C° 0,4 mm 1 m/S 735 mmHg 64%
    18:00 +26°C° 0,4 mm 1 m/S 735 mmHg 70%
    19:00 +22°C° 0,4 mm 0 m/S 735 mmHg 77%
    20:00 +24°C° 0,5 mm 1 m/S 735 mmHg 80%
    21:00 +23°C° 0,5 mm 1 m/S 735 mmHg 83%
    22:00 +22°C° 0,5 mm 1 m/S 735 mmHg 86%
    23:00 +22°C° 0,2 mm 1 m/S 735 mmHg 87%

    24 August, Freitag

    Zeit Temperatur Niederschläge Wind Luftdruck Luftfeuchtigkeit
    00:00 +22°C° 0,2 mm 1 m/S 734 mmHg 88%
    01:00 +21°C° 0,2 mm 1 m/S 734 mmHg 90%
    02:00 +21°C° 0,1 mm 1 m/S 734 mmHg 90%
    03:00 +21°C° 0,1 mm 1 m/S 734 mmHg 90%
    04:00 +20°C° 0,1 mm 1 m/S 733 mmHg 91%
    05:00 +21°C° 0,2 mm 1 m/S 733 mmHg 89%
    06:00 +22°C° 0,2 mm 1 m/S 733 mmHg 88%
    07:00 +22°C° 0,2 mm 1 m/S 733 mmHg 86%
    08:00 +24°C° 0,3 mm 1 m/S 733 mmHg 81%
    09:00 +25°C° 0,3 mm 1 m/S 732 mmHg 75%
    10:00 +27°C° 0,3 mm 1 m/S 732 mmHg 69%
    11:00 +28°C° 0,3 mm 1 m/S 732 mmHg 64%
    12:00 +29°C° 0,3 mm 1 m/S 731 mmHg 59%
    13:00 +30°C° 0,3 mm 1 m/S 731 mmHg 54%
    14:00 +30°C° 0,3 mm 1 m/S 730 mmHg 54%
    15:00 +30°C° 0,3 mm 1 m/S 730 mmHg 55%
    16:00 +29°C° 0,3 mm 1 m/S 730 mmHg 56%
    17:00 +27°C° 0,4 mm 1 m/S 730 mmHg 63%
    18:00 +25°C° 0,4 mm 2 m/S 730 mmHg 71%
    19:00 +23°C° 0,4 mm 2 m/S 730 mmHg 78%
    20:00 +21°C° 0,8 mm 2 m/S 730 mmHg 83%
    21:00 +20°C° 0,8 mm 2 m/S 730 mmHg 89%
    22:00 +19°C° 0,8 mm 2 m/S 730 mmHg 94%
    23:00 +19°C° 0,4 mm 2 m/S 730 mmHg 95%
    Mehr zeigen